EW1423 Weather Reports


Display with metric or nautical units.
time (UTC)temp
F
wind
direction
speed
MPH
gust
MPH
rain 1hr
in
rain 24hr
in
rain mn
in
humidity
%
barometer
mb
20260504183303 66 329 1.0 5.0 0.00 0.00 0.00 56 1012.3
20260504182804 66 296 1.0 5.0 0.00 0.00 0.00 56 1012.3
20260504182304 66 313 1.0 3.0 0.00 0.00 0.00 56 1012.3
20260504181804 66 306 1.0 3.0 0.00 0.00 0.00 56 1012.1
20260504181304 67 355 1.0 3.0 0.00 0.00 0.00 55 1012.1
20260504180804 67 281 2.0 5.0 0.00 0.00 0.00 54 1012.1
20260504180304 67 298 2.0 9.0 0.00 0.00 0.00 54 1012.1
20260504175803 68 317 1.0 3.0 0.00 0.00 0.00 54 1012.1
20260504175304 68 313 2.0 7.0 0.00 0.00 0.00 54 1012.0
20260504174804 68 315 2.0 7.0 0.00 0.00 0.00 54 1012.0
20260504174303 68 291 2.0 6.0 0.00 0.00 0.00 54 1011.8
20260504173803 68 293 2.0 7.0 0.00 0.00 0.00 53 1011.8
20260504173304 68 293 1.0 5.0 0.00 0.00 0.00 54 1011.8
20260504172805 68 343 2.0 5.0 0.00 0.00 0.00 54 1011.8
20260504171304 69 295 2.0 5.0 0.00 0.00 0.00 54 1011.8
20260504170804 69 315 1.0 5.0 0.00 0.00 0.00 54 1011.8
20260504170304 69 287 3.0 8.0 0.00 0.00 0.00 52 1011.8
20260504160303 72 277 2.0 5.0 0.00 0.00 0.00 48 1011.8
20260504141304 78 314 2.0 5.0 0.00 0.00 0.00 40 1012.1
20260504140803 77 32 2.0 7.0 0.00 0.00 0.00 41 1012.1
20260504140304 77 30 1.0 5.0 0.00 0.00 0.00 40 1012.5
20260504130804 75 38 3.0 7.0 0.00 0.00 0.00 44 1012.8
20260504130303 76 2 2.0 6.0 0.00 0.00 0.00 40 1012.8
20260504120304 72 312 1.0 2.0 0.00 0.00 0.00 46 1013.6
20260504110303 72 278 0.0 3.0 0.00 0.00 0.00 50 1013.7
20260504100303 72 97 1.0 3.0 0.00 0.00 0.00 48 1014.2
20260504081804 66 71 1.0 3.0 0.00 0.00 0.00 61 1015.0
20260504081303 65 88 1.0 3.0 0.00 0.00 0.00 63 1015.0
20260504050303 49 74 0.0 0.0 0.00 0.00 0.00 89 1015.0
20260504045804 49 74 0.0 0.0 0.00 0.00 0.00 89 1015.0
20260504045304 48 74 0.0 0.0 0.00 0.00 0.00 89 1015.0
20260504044804 48 74 0.0 0.0 0.00 0.00 0.00 89 1015.0
20260504044304 48 74 0.0 0.0 0.00 0.00 0.00 89 1015.0
20260504043803 48 74 0.0 0.0 0.00 0.00 0.00 89 1015.0
20260504043303 48 74 0.0 0.0 0.00 0.00 0.00 90 1015.0
20260504042803 48 74 0.0 0.0 0.00 0.00 0.00 89 1015.0
20260504042304 48 74 0.0 0.0 0.00 0.00 0.00 89 1015.0
20260504041803 49 74 0.0 0.0 0.00 0.00 0.00 89 1015.0
20260504041304 49 74 0.0 0.0 0.00 0.00 0.00 88 1015.0
20260504040803 49 74 0.0 0.0 0.00 0.00 0.00 88 1015.0
20260504035803 49 74 0.0 0.0 0.00 0.00 0.00 87 1015.0
20260504035305 50 74 0.0 0.0 0.00 0.00 0.00 86 1015.0
20260504034804 50 74 0.0 0.0 0.00 0.00 0.00 85 1015.0
20260504033805 50 74 0.0 0.0 0.00 0.00 0.00 85 1015.0
20260504033303 51 74 0.0 0.0 0.00 0.00 0.00 85 1015.0
20260504032803 51 74 0.0 0.0 0.00 0.00 0.00 84 1015.0
20260504032304 51 74 0.0 0.0 0.00 0.00 0.00 84 1015.0
20260504031804 51 74 0.0 0.0 0.00 0.00 0.00 83 1015.0
20260504030803 52 74 0.0 0.0 0.00 0.00 0.00 83 1015.0
20260504030304 52 74 0.0 0.0 0.00 0.00 0.00 83 1015.0
20260504025804 52 74 0.0 0.0 0.00 0.00 0.00 83 1015.0
20260504025304 52 74 0.0 0.0 0.00 0.00 0.00 82 1015.0
20260504024303 52 74 0.0 0.0 0.00 0.00 0.00 81 1015.0
20260504023303 52 74 0.0 0.0 0.00 0.00 0.00 82 1015.0
20260504022803 52 74 0.0 0.0 0.00 0.00 0.00 81 1015.0
20260504022305 52 74 0.0 0.0 0.00 0.00 0.00 81 1015.0
20260504021804 53 74 0.0 0.0 0.00 0.00 0.00 80 1015.0
20260504020803 53 74 0.0 0.0 0.00 0.00 0.00 80 1015.0
20260504015804 53 74 0.0 0.0 0.00 0.00 0.00 81 1014.9
20260504015304 53 74 0.0 0.0 0.00 0.00 0.00 79 1014.9
20260504014303 55 74 0.0 0.0 0.00 0.00 0.00 77 1014.8
20260504013803 55 74 0.0 0.0 0.00 0.00 0.00 76 1014.8
20260504013303 56 74 0.0 1.0 0.00 0.00 0.00 76 1014.8
20260504012804 56 74 0.0 0.0 0.00 0.00 0.00 76 1014.9
20260504012304 56 74 0.0 0.0 0.00 0.00 0.00 76 1014.8
20260504011803 56 74 0.0 0.0 0.00 0.00 0.00 75 1014.8
20260504010803 56 74 0.0 0.0 0.00 0.00 0.00 75 1014.8
20260504010318 57 74 0.0 0.0 0.00 0.00 0.00 75 1014.8
20260504005804 57 74 0.0 0.0 0.00 0.00 0.00 75 1014.8
20260504005304 57 74 0.0 0.0 0.00 0.00 0.00 74 1014.8
20260504004804 57 74 0.0 0.0 0.00 0.00 0.00 74 1014.8
20260504004304 57 74 0.0 0.0 0.00 0.00 0.00 73 1014.8
20260504003803 57 74 0.0 0.0 0.00 0.00 0.00 73 1014.8
20260504003304 57 74 0.0 1.0 0.00 0.00 0.00 72 1014.8
20260504002304 58 74 0.0 0.0 0.00 0.00 0.00 71 1014.9
20260504001803 58 74 0.0 0.0 0.00 0.00 0.00 71 1015.0
20260504000803 58 74 0.0 0.0 0.00 0.00 0.00 71 1015.0
20260504000303 58 74 0.0 0.0 0.00 0.00 0.00 70 1015.0
20260503235804 58 74 0.0 0.0 0.00 0.00 0.00 70 1015.0
20260503235304 58 74 0.0 1.0 0.00 0.00 0.00 69 1015.3
20260503234803 58 74 0.0 1.0 0.00 0.00 0.00 69 1015.3
20260503234303 58 74 0.0 0.0 0.00 0.00 0.00 69 1015.3
20260503233804 58 74 0.0 0.0 0.00 0.00 0.00 68 1015.3
20260503233303 58 74 0.0 1.0 0.00 0.00 0.00 69 1015.3
20260503232803 58 74 0.0 0.0 0.00 0.00 0.00 67 1015.3
20260503230804 59 74 0.0 2.0 0.00 0.00 0.00 68 1015.3
20260503230304 59 74 0.0 1.0 0.00 0.00 0.00 67 1015.3
20260503225304 59 74 0.0 1.0 0.00 0.00 0.00 66 1015.3
20260503224804 59 74 0.0 2.0 0.00 0.00 0.00 65 1015.4
20260503224303 59 74 0.0 2.0 0.00 0.00 0.00 65 1015.4
20260503223804 59 346 0.0 2.0 0.00 0.00 0.00 64 1015.4
20260503223303 59 338 0.0 0.0 0.00 0.00 0.00 64 1015.4
20260503222804 59 338 0.0 1.0 0.00 0.00 0.00 63 1015.4
20260503221804 60 338 0.0 1.0 0.00 0.00 0.00 62 1015.3
20260503221304 60 338 0.0 0.0 0.00 0.00 0.00 62 1015.3
20260503220303 60 338 0.0 0.0 0.00 0.00 0.00 61 1015.3
20260503215804 60 338 0.0 0.0 0.00 0.00 0.00 63 1015.3
20260503215304 60 338 0.0 0.0 0.00 0.00 0.00 59 1015.3
20260503214803 60 338 0.0 0.0 0.00 0.00 0.00 60 1015.2
20260503214303 61 338 0.0 0.0 0.00 0.00 0.00 58 1015.2
20260503213803 61 338 0.0 0.0 0.00 0.00 0.00 57 1015.2
20260503213304 61 338 0.0 0.0 0.00 0.00 0.00 57 1015.2
20260503212804 61 338 0.0 0.0 0.00 0.00 0.00 56 1015.2
20260503212305 61 338 0.0 0.0 0.00 0.00 0.00 55 1015.2
20260503211803 62 338 0.0 1.0 0.00 0.00 0.00 54 1014.9
20260503211304 62 338 0.0 1.0 0.00 0.00 0.00 53 1014.9
20260503210803 62 338 0.0 2.0 0.00 0.00 0.00 53 1014.9
20260503210304 62 12 0.0 2.0 0.00 0.00 0.00 54 1014.9
20260503205803 62 350 0.0 2.0 0.00 0.00 0.00 54 1014.9
20260503204804 62 323 0.0 1.0 0.00 0.00 0.00 53 1014.6
20260503204303 62 323 0.0 1.0 0.00 0.00 0.00 53 1014.6
20260503203804 62 327 0.0 2.0 0.00 0.00 0.00 53 1014.6
20260503203304 62 327 0.0 2.0 0.00 0.00 0.00 53 1014.6
20260503202804 62 327 1.0 2.0 0.00 0.00 0.00 53 1014.6
20260503202304 62 328 1.0 3.0 0.00 0.00 0.00 53 1014.6
20260503201304 62 315 1.0 5.0 0.00 0.00 0.00 54 1014.6
20260503200304 63 344 0.0 1.0 0.00 0.00 0.00 52 1013.9
20260503195804 63 344 0.0 1.0 0.00 0.00 0.00 51 1013.9
20260503195304 63 344 0.0 1.0 0.00 0.00 0.00 52 1013.9
20260503194304 64 344 1.0 2.0 0.00 0.00 0.00 50 1013.9
20260503193803 64 344 1.0 2.0 0.00 0.00 0.00 49 1013.9
20260503193304 64 326 0.0 3.0 0.00 0.00 0.00 50 1013.9
20260503192305 65 17 0.0 3.0 0.00 0.00 0.00 49 1013.9
20260503191803 65 28 1.0 5.0 0.00 0.00 0.00 48 1013.9
20260503190804 65 313 1.0 5.0 0.00 0.00 0.00 48 1013.7
20260503185804 66 269 2.0 6.0 0.00 0.00 0.00 46 1013.7
20260503184804 66 301 2.0 7.0 0.00 0.00 0.00 46 1013.7
20260503184303 67 336 2.0 6.0 0.00 0.00 0.00 46 1013.7
20260503183803 67 314 2.0 7.0 0.00 0.00 0.00 46 1013.7